Weather History for Ithaca, NY

Change the Weather History Date:

Saturday, November 30, 2013

  Actual Average Record
Temperature  
Mean Temperature 18 °F -  
Max Temperature 30 °F 39 °F 66 °F (1998)
Min Temperature 7 °F 27 °F -4 °F (1976)
Degree Days  
Heating Degree Days 46    
Moisture  
Dew Point 11 °F    
Average Humidity 69    
Maximum Humidity 88    
Minimum Humidity 47    
Precipitation  
Precipitation 0.00 in - - ()
Sea Level Pressure  
Sea Level Pressure 30.56 in    
Wind  
Wind Speed 9 mph (SE)    
Max Wind Speed 22 mph    
Max Gust Speed 25 mph    
Visibility 10 miles    
Events      
Averages and records for this station are not official NWS values.
T = Trace of Precipitation, MM = Missing Value Source: NWS Daily Summary

Daily Weather History Graph

Daily Weather History Graph

Search for Another Location

Airport:

Trip Planner

Search our weather history database for the weather conditions in past years. The results will help you decide how hot, cold, wet, or windy it might be!

Date:

Astronomy

Nov. 30, 2013 Rise Set
Actual Time 7:14 AM EST 4:34 PM EST
Civil Twilight 6:43 AM EST 5:05 PM EST
Nautical Twilight 6:08 AM EST 5:40 PM EST
Astronomical Twilight 5:34 AM EST 6:14 PM EST
Moon 4:20 AM EST (11/30) 2:59 PM EST (11/30)
Length of Visible Light 10h 21m
Length of Day
9h 19m
Waning Crescent, 7% of the Moon is Illuminated
Nov 30
Waning Crescent
Dec 2
New
Dec 9
First Quarter
Dec 17
Full
Dec 25
Last Quarter

Hourly Weather History & Observations

Time (EST) Temp. Windchill Dew Point Humidity Pressure Visibility Wind Dir Wind Speed Gust Speed Precip Events Conditions
12:56 AM 7.2 °F -3.0 °F 4.1 °F 87% 30.76 in 10.0 mi East 5.8 mph - N/A   Clear
1:56 AM 9.1 °F -0.7 °F 5.0 °F 83% 30.76 in 10.0 mi East 5.8 mph - N/A   Clear
2:56 AM 8.1 °F -2.0 °F 5.0 °F 87% 30.76 in 10.0 mi East 5.8 mph - N/A   Clear
3:56 AM 8.1 °F -0.5 °F 5.0 °F 87% 30.76 in 10.0 mi East 4.6 mph - N/A   Clear
4:56 AM 8.1 °F -2.0 °F 5.0 °F 87% 30.74 in 10.0 mi East 5.8 mph - N/A   Clear
5:56 AM 8.1 °F -2.0 °F 5.0 °F 87% 30.74 in 10.0 mi East 5.8 mph - N/A   Clear
6:27 AM 8.6 °F -1.3 °F 5.0 °F 85% 30.65 in 10.0 mi East 5.8 mph - N/A   Clear
6:56 AM 9.1 °F -0.7 °F 5.0 °F 83% 30.72 in 10.0 mi East 5.8 mph - N/A   Clear
7:56 AM 10.0 °F 1.8 °F 7.2 °F 88% 30.71 in 10.0 mi East 4.6 mph - N/A   Clear
8:56 AM 16.2 °F 10.6 °F 12.0 °F 84% 30.70 in 10.0 mi SE 3.5 mph - N/A   Clear
9:56 AM 21.0 °F 8.6 °F 13.1 °F 71% 30.66 in 10.0 mi SSE 12.7 mph - N/A   Clear
10:56 AM 24.1 °F 11.5 °F 10.0 °F 55% 30.63 in 10.0 mi South 15.0 mph 21.9 mph N/A   Clear
11:56 AM 25.2 °F 10.4 °F 10.0 °F 53% 30.58 in 10.0 mi SSE 21.9 mph 25.3 mph N/A   Clear
12:56 PM 28.0 °F 16.1 °F 11.1 °F 49% 30.53 in 10.0 mi South 16.1 mph 20.7 mph N/A   Scattered Clouds
1:56 PM 30.0 °F 19.1 °F 12.0 °F 47% 30.49 in 10.0 mi South 15.0 mph 18.4 mph N/A   Mostly Cloudy
2:56 PM 30.0 °F 18.7 °F 13.1 °F 49% 30.45 in 10.0 mi South 16.1 mph - N/A   Overcast
3:56 PM 30.0 °F 20.0 °F 12.0 °F 47% 30.43 in 10.0 mi South 12.7 mph - N/A   Overcast
4:56 PM 30.0 °F 20.0 °F 13.1 °F 49% 30.43 in 10.0 mi South 12.7 mph - N/A   Overcast
5:56 PM 29.1 °F 18.9 °F 15.1 °F 56% 30.41 in 10.0 mi South 12.7 mph - N/A   Overcast
6:56 PM 30.0 °F 17.9 °F 17.1 °F 59% 30.37 in 10.0 mi South 18.4 mph 24.2 mph N/A   Overcast
7:56 PM 30.0 °F 19.1 °F 19.0 °F 64% 30.37 in 10.0 mi South 15.0 mph 21.9 mph N/A   Overcast
8:56 PM 29.1 °F 18.9 °F 19.0 °F 66% 30.34 in 10.0 mi South 12.7 mph 21.9 mph N/A   Scattered Clouds
9:56 PM 29.1 °F 20.0 °F 19.0 °F 66% 30.32 in 10.0 mi South 10.4 mph - N/A   Scattered Clouds
10:56 PM 29.1 °F 18.4 °F 20.1 °F 69% 30.31 in 10.0 mi South 13.8 mph - N/A   Clear
11:56 PM 28.0 °F 17.0 °F 20.1 °F 72% 30.30 in 10.0 mi South 13.8 mph - N/A   Clear